Location: Pulvis Stellarum Observatory
(41.6962°N, 71.4263°W)
Time: 06:23:50
(UTC-04:00)

Daily predictions for brighter satellites

Satellite Brightness Start Highest point End
(mag) Time Altitude Azimuth Time Altitude Azimuth Time Altitude Azimuth
Spot 1 4.2 20:35:09 10° SSE 20:39:32 61° ENE 20:43:43 10° N
PSLV R/B 3.8 20:38:17 10° W 20:41:15 41° SSW 20:44:13 10° SE
Nadezhda 1 Rocket 4.2 20:35:24 10° SSE 20:41:35 57° E 20:47:51 10° NNE
Cosmos 2112 Rocket 4.0 20:38:17 10° SSW 20:43:30 87° ESE 20:48:43 10° NNE
Cosmos 192 4.3 20:42:19 10° SSW 20:47:12 80° ESE 20:52:07 10° NNE
Helios 1A 3.0 20:43:43 10° SSE 20:47:56 83° ENE 20:52:09 10° NNW
Cosmos 1624 Rocket 4.5 20:44:46 10° N 20:49:54 48° ENE 20:55:01 10° SE
Cosmos 405 Rocket 3.5 20:48:14 10° SSW 20:51:56 55° WNW 20:55:45 10° N
Cosmos 921 Rocket 4.1 20:52:28 10° N 20:56:28 31° ENE 21:00:13 11° SE
SL-27 R/B 3.2 20:53:29 10° SSW 20:57:06 61° WNW 21:00:43 10° NNE
Cosmos 1441 Rocket 3.1 20:54:24 10° S 20:58:08 89° E 21:01:53 10° N
Cosmos 2154 Rocket 4.2 20:54:34 10° N 21:00:51 58° E 21:07:05 10° SSE
H-2A R/B 3.7 20:57:56 10° ESE 21:01:15 18° ENE 21:04:37 10° NNE
Helios 1B rocket 2.6 20:58:24 10° N 21:02:33 81° WNW 21:06:41 10° SSW
Tiangong 2 1.3 20:59:53 10° W 21:03:04 73° N 21:06:15 10° E
H-2A R/B 4.5 13:41:29 10° SW 21:04:35 41° SW 21:12:02 11° SSE
Aureole 1 Rocket 3.8 21:04:42 10° SW 21:07:41 38° WNW 21:10:31 10° N
Meteor 1-23 Rocket 4.2 21:02:08 10° S 21:07:42 79° E 21:13:20 10° NNE
Cosmos 967 Rocket 4.4 21:02:36 10° SSW 21:08:47 66° ESE 21:15:01 10° NE
Cosmos 2056 Rocket 3.5 21:04:28 10° NNW 21:09:37 66° ENE 21:14:19 12° SSE
Envisat 3.6 21:05:55 10° S 21:10:53 57° W 21:15:55 10° NNW
SAR-Lupe-4 4.3 21:12:27 10° S 21:15:58 51° W 21:19:29 10° NNW
Cosmos 1892 Rocket 4.0 21:12:10 10° SSE 21:16:22 43° E 21:20:33 10° NNE
Lacrosse 5 rocket 4.3 21:14:31 10° NNW 21:16:42 13° N 21:18:52 10° NE
Cosmos 2082 Rocket 2.8 21:11:38 10° SSE 21:16:43 35° ESE 21:21:48 10° NE
Cosmos 2278 4.0 21:13:00 10° NNW 21:18:39 58° ENE 21:23:15 15° SE
Terra 3.9 21:17:14 10° E 21:19:31 14° ENE 21:21:49 10° NNE
Meteor 1-4 Rocket 4.3 21:19:57 10° NNE 21:22:29 18° ENE 21:23:57 15° ESE
Okean 1-7 Rocket 4.0 21:18:54 10° SSW 21:23:19 65° W 21:27:50 10° N
YAOGAN 6 2.7 21:19:58 10° S 21:23:27 68° W 21:26:58 10° NNW
Okean 2 3.4 21:21:58 10° S 21:26:02 87° W 21:30:10 10° N
Cosmos 1606 Rocket 3.5 21:22:36 10° N 21:26:56 76° E 21:30:35 14° SSE
SPOT 5 3.1 21:28:06 18° SE 21:31:00 46° ENE 21:35:12 10° N
Cosmos 1025 Rocket 3.6 21:27:12 10° SSW 21:31:24 58° W 21:35:37 10° N
Meteor 1-15 Rocket 4.3 21:26:48 10° NNW 21:32:23 76° W 21:37:55 10° S
Cosmos 1656 4.0 21:27:54 10° NNW 21:33:15 53° ENE 21:37:02 19° SE
Cosmos 1697 Rocket 3.4 21:28:55 10° N 21:34:11 39° ENE 21:37:54 18° ESE
MOS 1-B Rocket 4.1 21:29:13 14° SSE 21:34:19 76° ENE 21:40:58 10° N
NOSS 8 (H) 4.4 21:31:04 10° SSW 21:34:24 57° ESE 21:37:52 10° NE
Cosmos 1726 Rocket 3.4 21:31:32 10° N 21:35:53 79° E 21:39:06 17° SSE
Cosmos 2341 Rocket 4.0 21:30:26 10° N 21:36:49 80° E 21:42:28 14° S
SL-24 DEB 4.5 21:33:58 18° SSE 21:37:09 53° E 21:41:41 10° N
Cosmos 2369 3.7 21:33:30 10° NNW 21:39:16 83° ENE 21:43:25 19° SSE
SL-08 RB Rocket 4.0 21:38:11 21° SE 21:40:53 49° ENE 21:45:13 10° N
Cosmos 1452 Rocket 3.9 21:36:14 10° N 21:41:24 52° ENE 21:44:39 22° SE
COSMOS 2487 2.3 21:38:13 10° SSW 21:41:46 81° ESE 21:45:21 10° NNE
SL-16 R/B 4.4 21:40:55 10° NNE 21:43:16 12° NE 21:45:37 10° ENE
Cosmos 2218 Rocket 4.4 21:39:06 10° N 21:45:02 47° ENE 21:48:53 21° SE
MetOp-A 4.1 21:41:22 16° SSE 21:45:44 86° WSW 21:51:08 10° NNW
ERS-1 Rocket 3.3 21:41:26 12° S 21:46:00 64° WSW 21:51:00 10° NNW
USA 245 2.2 21:47:12 48° ESE 21:47:31 53° ENE 21:49:45 10° N
Cosmos 1833 Rocket 2.7 21:44:06 10° S 21:49:36 62° ESE 21:55:10 10° NNE
SPOT 1/Viking Rocket 3.7 21:49:30 23° SE 21:52:37 58° ENE 21:57:40 10° N
ISS -1.0 21:50:25 10° WNW 21:52:58 20° NNW 21:55:29 10° NNE
OAO 2 Rocket 4.4 21:49:00 10° WSW 21:53:07 27° SSW 21:54:39 23° SSE
Cosmos 2058 Rocket 3.1 21:51:18 10° N 21:55:45 86° W 21:58:30 23° S
Iridium 43 3.3 21:58:37 10° N 22:00:46 82° N 22:00:46 82° N
YAOGAN 11 4.3 22:02:03 23° S 22:04:39 66° WSW 22:08:59 10° NNW
Cosmos 1271 Rocket 4.1 22:01:25 10° NNE 22:04:39 24° ENE 22:05:23 23° E
Cosmos 2181 Rocket 4.2 21:59:09 10° SSW 22:05:31 76° W 22:11:49 10° N
USA 229 DEB 4.3 22:00:39 10° NNW 22:07:38 53° NE 22:12:17 22° ESE
USA 229 4.3 22:00:45 10° NNW 22:07:43 52° NE 22:12:23 22° ESE
Cosmos 468 4.5 22:05:25 19° S 22:09:08 66° ESE 22:14:24 10° NNE
Cosmos 1066 Rocket 4.1 22:06:49 18° S 22:11:03 85° E 22:16:44 10° N
H-2A R/B 2.9 22:11:41 29° ESE 22:13:11 38° ENE 22:17:23 10° N
Meteor 2-21 4.4 22:07:25 10° N 22:13:28 71° E 22:16:42 29° SSE
Cosmos 1812 Rocket 4.1 22:10:47 10° N 22:15:05 45° ENE 22:16:19 35° ESE
Meteor 2-21 Rocket 4.5 22:12:17 10° N 22:18:18 63° E 22:21:10 31° SSE
Cosmos 158 Rocket 4.2 22:19:00 32° SSE 22:21:13 54° ESE 22:26:28 10° NNE
Cosmos 864 Rocket 4.4 22:15:45 10° N 22:22:03 78° E 22:25:17 31° SSE
Cosmos 1980 Rocket 2.4 22:17:52 10° NNW 22:23:28 58° ENE 22:25:49 33° SE
Cosmos 1626 Rocket 3.4 22:21:47 36° S 22:23:29 84° E 22:27:49 10° N
ARGOS 3.7 22:20:51 21° S 22:24:20 52° W 22:29:39 10° NNW
Cosmos 2228 4.2 22:29:43 10° NNW 22:33:40 36° W 22:35:49 22° SW
CZ-4B R/B 4.1 22:29:51 10° NNE 22:34:36 37° E 22:35:16 35° ESE
Cosmos 2322 Rocket 3.6 22:30:13 10° N 22:35:06 28° NE 22:37:39 20° E
Cosmos 1953 3.6 22:31:41 10° NNE 22:35:12 27° ENE 22:35:24 27° E
Cosmos 1825 Rocket 4.3 22:37:25 35° E 22:37:27 35° E 22:41:24 10° NNE
Tiangong 2 1.5 22:36:43 10° WNW 22:39:21 58° WNW 22:39:21 58° WNW
H-2A R/B 2.4 22:38:01 31° SSW 22:40:10 56° W 22:45:11 10° NNW
Landsat 7 3.9 22:40:01 41° S 22:41:38 71° WSW 22:46:24 10° NNW
Cosmos 1766 3.1 22:38:13 10° N 22:42:08 87° W 22:42:36 69° S
Meteor 1-21 4.2 22:41:30 36° S 22:43:55 80° E 22:49:42 10° NNE
PSLV R/B 4.3 22:46:03 34° NNE 22:46:03 34° NNE 22:47:55 10° N
Cosmos 2366 rocket 4.2 22:41:05 10° NNW 22:47:10 64° W 22:50:17 30° SSW
CZ-2C R/B 4.5 22:49:39 10° NE 22:52:59 16° E 22:52:59 16° E
Terra 1.9 22:55:30 50° S 22:56:39 72° WSW 23:01:25 10° NNW
Cosmos 1470 4.3 22:53:49 10° NNE 22:56:59 26° ENE 22:56:59 26° ENE
Lacrosse 5 rocket 3.2 22:53:11 10° NNW 22:57:17 30° NNE 22:59:31 20° ENE
Meteor 1-4 Rocket 4.3 22:54:41 10° NW 22:57:37 24° W 22:58:16 23° WSW
Cosmos-2242 4.4 22:56:52 10° NNE 23:00:26 25° ENE 23:00:26 25° ENE
Cosmos 2082 Rocket 3.7 22:55:37 10° WSW 23:00:45 35° WNW 23:05:55 10° N
Meteor 2-8 Rocket 4.4 23:01:41 45° SSE 23:03:38 72° E 23:09:46 10° NNE
Cosmos 1269 Rocket 4.4 23:01:07 25° SW 23:04:08 61° WNW 23:09:24 10° NNE
Cosmos 1805 3.3 23:06:57 10° NNW 23:10:42 74° WNW 23:10:42 74° WNW
deb Chang Zheng 4 3.9 23:09:19 10° N 23:13:33 59° WNW 23:14:27 48° WSW
Cosmos 1331 Rocket 4.1 23:08:50 10° NNW 23:13:57 60° ENE 23:14:46 53° ESE
Cosmos 1110 Rocket 3.9 23:12:36 10° NNW 23:17:52 75° ENE 23:18:39 62° SE
Cosmos 1697 Rocket 3.9 23:13:10 10° NW 23:17:58 30° WSW 23:19:38 25° SW
Cosmos 1758 3.3 23:14:19 10° N 23:18:04 75° NW 23:18:04 75° NW
Cosmos 389 Rocket 3.2 23:15:51 10° N 23:18:31 50° N 23:18:31 50° N
Spot 4 3.7 23:21:37 67° SSW 23:22:09 77° WSW 23:26:59 10° NNW
USA 267 3.5 23:16:49 10° ENE 23:22:57 43° SE 23:22:57 43° SE
Lacrosse 5 2.0 23:25:30 56° E 23:25:30 56° E 23:29:53 10° NE
SL-16 R/B 2.3 23:22:48 10° NNW 23:28:29 69° ENE 23:29:33 56° ESE
ISS -0.6 23:28:24 10° NNW 23:30:22 15° N 23:32:21 10° NE
Cosmos 1934 Rocket 4.0 23:24:14 10° N 23:30:36 71° E 23:32:02 53° SE
NOSS 3-1 (C) 4.0 23:23:55 10° NNW 23:31:32 80° NE 23:34:52 41° SE
SeaSat 1 3.8 23:30:49 25° E 23:32:17 30° NE 23:36:33 10° N
CZ-2C R/B 4.0 23:33:01 36° E 23:34:09 41° ENE 23:39:27 10° N
DELTA 2 DEB (DPAF) 4.3 23:34:36 63° WSW 23:34:40 63° W 23:39:07 10° NNW
ATLAS CENTAUR R/B 2.0 23:35:46 10° NNW 23:38:30 47° NNW 23:38:30 47° NNW
CZ-4C R/B 4.4 23:45:30 36° WNW 23:45:30 36° WNW 23:48:08 10° NNW
Cosmos 1758 Rocket 4.0 23:47:43 51° W 23:47:46 51° W 23:52:02 10° N
Cosmos 2251 Rocket 3.5 23:47:57 67° SW 23:48:40 82° WNW 23:54:04 10° NNE
H-2A R/B 4.0 23:48:48 21° WSW 23:49:17 21° W 23:52:43 10° NW
Cosmos 1733 4.0 23:45:42 10° NNW 23:48:41 51° NNW 23:48:41 51° NNW
Cosmos 1842 Rocket 4.5 23:48:08 10° N 23:52:04 40° ENE 23:52:04 40° ENE
Cosmos 972 4.5 23:48:48 10° NNW 23:54:11 69° ENE 23:54:28 67° E
